Location: Roland
(31.1349°N, 85.4372°W)
Time: 22:04:04
(UTC+00:00)

Tiros 1 - Pass Details

Date: 18 April 2021
Orbit: 630 x 664 km, 48.4° (Epoch: 13 May)

Event Time Altitude Azimuth Distance (km) Brightness Sun altitude
Rises 22:16:08 0° 308° (NW) 2,914 11.3 23.8°
Reaches altitude 10° 22:18:27 10° 307° (NW) 2,006 10.6 23.3°
Maximum altitude 22:23:02 73° 224° (SW) 661 7.8 22.3°
Drops below altitude 10° 22:27:39 10° 139° (SE) 2,011 9.4 21.4°
Sets 22:29:59 0° 137° (SE) 2,922 10.1 20.9°
